Weather History for Topeka Forbes, KS

Change the Weather History Date:

Saturday, June 7, 2014

  Actual Average Record
Temperature  
Mean Temperature 72 °F -  
Max Temperature 78 °F 84 °F 98 °F (1963)
Min Temperature 64 °F 60 °F 48 °F (1998)
Cooling Degree Days 7    
Growing Degree Days 22 (Base 50)    
Moisture  
Dew Point 65 °F    
Average Humidity 83    
Maximum Humidity 97    
Minimum Humidity 58    
Precipitation  
Precipitation 0.56 in - - ()
Sea Level Pressure  
Sea Level Pressure 29.86 in    
Wind  
Wind Speed 9 mph (NNW)    
Max Wind Speed 22 mph    
Max Gust Speed 30 mph    
Visibility 8 miles    
Events Rain , Thunderstorm    
Averages and records for this station are not official NWS values.
T = Trace of Precipitation, MM = Missing Value Source: NWS Daily Summary

Daily Weather History Graph

Daily Weather History Graph

Search for Another Location

Airport:

Trip Planner

Search our weather history database for the weather conditions in past years. The results will help you decide how hot, cold, wet, or windy it might be!

Date:

Astronomy

Jun. 07, 2014 Rise Set
Actual Time 5:57 AM CDT 8:46 PM CDT
Civil Twilight 5:25 AM CDT 9:17 PM CDT
Nautical Twilight 4:45 AM CDT 9:57 PM CDT
Astronomical Twilight 4:00 AM CDT 10:43 PM CDT
Moon 3:07 PM CDT (6/7) 2:16 AM CDT (6/7)
Length of Visible Light 15h 52m
Length of Day
14h 48m
Waxing Gibbous, 68% of the Moon is Illuminated
Jun 7
Waxing Gibbous
Jun 12
Full
Jun 19
Last Quarter
Jun 27
New
Jul 5
First Quarter

Hourly Weather History & Observations

Time (CDT) Temp. Dew Point Humidity Pressure Visibility Wind Dir Wind Speed Gust Speed Precip Events Conditions
12:53 AM 70.0 °F 66.9 °F 90% 29.88 in 10.0 mi ESE 5.8 mph - N/A   Clear
1:16 AM 70.0 °F 66.9 °F 90% 29.89 in 10.0 mi ESE 5.8 mph - N/A   Mostly Cloudy
1:49 AM 69.8 °F 66.2 °F 88% 29.89 in 10.0 mi ESE 8.1 mph - N/A   Overcast
1:53 AM 70.0 °F 66.9 °F 90% 29.86 in 10.0 mi ESE 6.9 mph - N/A   Overcast
2:53 AM 70.0 °F 66.9 °F 90% 29.83 in 10.0 mi ESE 6.9 mph - N/A   Clear
4:02 AM 70.0 °F 68.0 °F 93% 29.85 in 5.0 mi SSE 9.2 mph - 0.02 in Rain Rain
4:09 AM 70.0 °F 68.0 °F 93% 29.84 in 5.0 mi SSE 9.2 mph - 0.03 in Rain Light Rain
4:12 AM 70.0 °F 68.0 °F 93% 29.84 in 5.0 mi SSE 9.2 mph - 0.04 in Rain , Thunderstorm Light Rain
4:20 AM 70.0 °F 68.0 °F 93% 29.85 in 6.0 mi SSE 11.5 mph - 0.04 in Rain , Thunderstorm Light Thunderstorms and Rain
4:29 AM 70.0 °F 68.0 °F 93% 29.84 in 1.8 mi South 21.9 mph 29.9 mph 0.19 in Rain , Thunderstorm Light Thunderstorms and Rain
4:32 AM 70.0 °F 68.0 °F 93% 29.85 in 1.2 mi South 15.0 mph 29.9 mph 0.25 in Rain , Thunderstorm Heavy Thunderstorms and Rain
4:50 AM 69.8 °F 66.2 °F 88% 29.84 in 3.0 mi SSW 9.2 mph - 0.41 in Rain , Thunderstorm Thunderstorms and Rain
4:51 AM 69.1 °F 66.9 °F 93% 29.81 in 3.0 mi SSW 8.1 mph - 0.42 in Rain , Thunderstorm Thunderstorms and Rain
5:04 AM 68.0 °F 66.0 °F 93% 29.83 in 4.0 mi SW 9.2 mph - 0.03 in Rain Rain
5:53 AM 66.9 °F 66.0 °F 97% 29.75 in 8.0 mi NE 5.8 mph - 0.12 in Rain Light Rain
6:53 AM 68.0 °F 66.0 °F 93% 29.78 in 5.0 mi Calm Calm - 0.02 in Rain Light Rain
7:19 AM 66.9 °F 64.9 °F 93% 29.82 in 4.0 mi SE 6.9 mph - 0.04 in Rain Rain
7:26 AM 66.0 °F 64.0 °F 93% 29.83 in 4.0 mi SSE 5.8 mph - 0.05 in Rain Rain
8:15 AM 66.0 °F 64.0 °F 93% 29.84 in 2.0 mi WNW 9.2 mph - 0.04 in Rain Rain
8:31 AM 66.0 °F 64.0 °F 93% 29.84 in 4.0 mi WNW 9.2 mph - 0.05 in Rain Light Rain
9:25 AM 70.0 °F 66.9 °F 90% 29.84 in 10.0 mi NW 9.2 mph - N/A   Mostly Cloudy
9:35 AM 69.1 °F 66.0 °F 90% 29.83 in 10.0 mi NW 11.5 mph - N/A   Mostly Cloudy
9:48 AM 69.8 °F 66.2 °F 88% 29.83 in 10.0 mi NW 9.2 mph - N/A   Overcast
9:53 AM 71.1 °F 66.0 °F 84% 29.81 in 10.0 mi NW 10.4 mph - N/A   Overcast
10:53 AM 73.9 °F 64.9 °F 73% 29.80 in 10.0 mi NW 10.4 mph 19.6 mph N/A   Partly Cloudy
11:09 AM 72.0 °F 64.9 °F 78% 29.84 in 10.0 mi NW 15.0 mph - N/A   Mostly Cloudy
11:53 AM 73.9 °F 64.9 °F 73% 29.83 in 10.0 mi WNW 17.3 mph 23.0 mph N/A   Mostly Cloudy
12:53 PM 75.0 °F 66.0 °F 73% 29.84 in 10.0 mi NW 20.7 mph 27.6 mph N/A   Mostly Cloudy
1:05 PM 77.0 °F 66.0 °F 69% 29.86 in 10.0 mi NNW 16.1 mph - N/A   Scattered Clouds
1:53 PM 77.0 °F 64.9 °F 66% 29.85 in 10.0 mi NNW 17.3 mph 24.2 mph N/A   Scattered Clouds
2:53 PM 77.0 °F 63.0 °F 62% 29.87 in 10.0 mi NNW 16.1 mph - N/A   Mostly Cloudy
3:53 PM 77.0 °F 64.0 °F 64% 29.88 in 10.0 mi NNW 12.7 mph 21.9 mph 0.00 in   Partly Cloudy
4:53 PM 75.9 °F 63.0 °F 64% 29.88 in 10.0 mi North 18.4 mph - N/A   Partly Cloudy
5:53 PM 78.1 °F 62.1 °F 58% 29.88 in 10.0 mi North 15.0 mph 24.2 mph N/A   Partly Cloudy
6:53 PM 75.9 °F 61.0 °F 60% 29.90 in 10.0 mi North 9.2 mph - N/A   Clear
7:53 PM 73.9 °F 60.1 °F 62% 29.93 in 10.0 mi North 11.5 mph - N/A   Partly Cloudy
8:53 PM 70.0 °F 60.1 °F 71% 29.94 in 10.0 mi North 8.1 mph - N/A   Clear
9:53 PM 69.1 °F 61.0 °F 75% 29.96 in 10.0 mi North 5.8 mph - N/A   Clear
10:53 PM 66.9 °F 61.0 °F 81% 29.98 in 10.0 mi North 5.8 mph - N/A   Clear
11:53 PM 64.9 °F 61.0 °F 87% 29.98 in 10.0 mi North 4.6 mph - N/A   Clear